Date String (YYYY-MM-DD hh:mm:ss) UTC,Instrument flags,absolute air pressure of the measurement (hPa),sample flow rate (lpm),inlet stack bypass flow (lpm),air temperature of the measurement (°C),ambient temperature measured by the external sensor (°C),aerosol sample conditioner tube jacket temperature (°C),OPC LED temperature (°C),internal box temperature (°C),relative humidity of the measurement (%),span deviation,mass concentration of particles derived from Lorenz-Mie calculation of OPC scattering (μg/m³),mass concentration of particles derived from Lorenz-Mie calculation of OPC scattering (μg/m³),mass concentration of particles derived from Lorenz-Mie calculation of OPC scattering (μg/m³)
DateTimeUTC,F1_M11,P_M11,Q1_M11,Q2_M11,T1_M11,T2_M11,T3_M11,T4_M11,T5_M11,U1_M11,ZSPAN_M11,X0_M11,X2_M11,X1_M11
2023-09-30 04:00:00,SystemResetWarning,0828.6,5.00,000.00,028.1,024.0,000.0,036.6,029.5,20.6,0000.0,0021.66,0005.68,0003.97
2023-09-30 04:01:00,SystemResetWarning,0828.6,5.00,000.00,028.0,024.5,000.0,036.6,029.5,20.7,0000.0,0021.58,0005.75,0003.98
2023-09-30 04:02:00,SystemResetWarning,0828.6,5.00,000.00,028.0,025.0,000.0,036.6,029.6,20.8,0000.0,0020.22,0005.77,0003.99
2023-09-30 04:03:00,SystemResetWarning,0828.6,5.00,000.00,028.0,025.4,000.0,036.6,029.6,20.9,0000.0,0021.51,0005.83,0004.00
2023-09-30 04:04:00,SystemResetWarning,0828.6,5.00,000.00,028.0,025.7,000.0,036.6,029.7,21.0,0000.0,0021.76,0005.90,0004.02
2023-09-30 04:05:00,SystemResetWarning,0828.6,5.00,000.00,028.0,026.0,000.0,036.6,029.8,21.0,0000.0,0021.41,0005.85,0004.04
2023-09-30 04:06:00,SystemResetWarning,0828.6,5.00,000.00,028.0,026.3,000.0,036.6,029.8,21.0,0000.0,0021.66,0005.86,0004.06
2023-09-30 04:07:00,SystemResetWarning,0828.6,5.00,000.00,028.0,026.5,000.0,036.6,029.9,21.0,0000.0,0022.30,0005.93,0004.07
2023-09-30 04:08:00,SystemResetWarning,0828.6,4.99,000.00,028.1,026.7,000.0,036.6,029.9,21.0,0000.0,0021.76,0005.95,0004.08
2023-09-30 04:09:00,SystemResetWarning,0828.6,5.00,000.00,028.1,026.8,000.0,036.6,030.0,21.0,0000.0,0022.59,0005.94,0004.09
2023-09-30 04:10:00,SystemResetWarning,0828.6,5.00,000.00,028.2,027.0,000.0,036.6,030.0,20.9,0000.0,0022.80,0006.00,0004.08
2023-09-30 04:11:00,SystemResetWarning,0828.6,5.01,000.00,028.2,027.1,000.0,036.6,030.1,20.8,0000.0,0022.59,0006.07,0004.08
2023-09-30 04:12:00,SystemResetWarning,0828.6,5.00,000.00,028.2,027.2,000.0,036.6,030.1,20.8,0000.0,0022.74,0006.08,0004.09
2023-09-30 04:13:00,SystemResetWarning,0828.6,5.01,000.00,028.3,027.2,000.0,036.7,030.2,20.7,0000.0,0022.87,0006.06,0004.10
2023-09-30 04:14:00,SystemResetWarning,0828.6,4.99,000.00,028.3,027.3,000.0,036.7,030.2,20.7,0000.0,0021.64,0006.02,0004.10
2023-09-30 04:15:00,SystemResetWarning,0828.6,4.99,000.00,028.4,027.4,000.0,036.7,030.2,20.7,0000.0,0020.62,0005.99,0004.11
2023-09-30 04:16:00,SystemResetWarning,0828.6,5.01,000.00,028.4,027.4,000.0,036.7,030.3,20.7,0000.0,0021.23,0006.00,0004.11
2023-09-30 04:17:00,SystemResetWarning,0828.6,5.01,000.00,028.4,027.3,000.0,036.8,030.3,20.7,0000.0,0021.74,0006.02,0004.11
2023-09-30 04:18:00,SystemResetWarning,0828.7,4.99,000.00,028.4,025.7,000.0,036.7,030.1,20.7,0000.0,0020.90,0005.97,0004.13
2023-09-30 04:19:00,SystemResetWarning,0828.6,5.01,000.00,028.3,024.6,000.0,036.7,029.9,20.7,0000.0,0020.27,0005.93,0004.13
2023-09-30 04:20:00,SystemResetWarning,0828.6,5.01,000.00,028.2,024.6,000.0,036.6,029.7,20.8,0000.0,0018.58,0005.95,0004.14
2023-09-30 04:21:00,SystemResetWarning,0828.6,5.00,000.00,028.1,024.9,000.0,036.7,029.7,21.0,0000.0,0019.66,0005.99,0004.17
2023-09-30 04:22:00,SystemResetWarning,0828.6,5.00,000.00,028.1,025.2,000.0,036.7,029.7,21.0,0000.0,0020.21,0005.99,0004.17
2023-09-30 04:23:00,SystemResetWarning,0828.6,5.01,000.00,028.1,025.6,000.0,036.7,029.8,21.0,0000.0,0020.07,0006.04,0004.18
2023-09-30 04:24:00,SystemResetWarning,0828.6,5.01,000.00,028.1,025.9,000.0,036.7,029.9,21.0,0000.0,0019.78,0006.03,0004.19
2023-09-30 04:25:00,SystemResetWarning,0828.6,4.99,000.00,028.1,026.2,000.0,036.7,029.9,21.0,0000.0,0020.23,0006.10,0004.19
2023-09-30 04:26:00,SystemResetWarning,0828.6,5.00,000.00,028.1,026.4,000.0,036.7,030.0,21.0,0000.0,0020.99,0006.12,0004.19
2023-09-30 04:27:00,SystemResetWarning,0828.7,5.00,000.00,028.2,026.6,000.0,036.7,030.0,21.0,0000.0,0020.65,0006.14,0004.20
2023-09-30 04:28:00,SystemResetWarning,0828.7,5.00,000.00,028.2,026.8,000.0,036.7,030.1,21.0,0000.0,0021.23,0006.17,0004.21
2023-09-30 04:29:00,SystemResetWarning,0828.7,5.01,000.00,028.2,026.9,000.0,036.7,030.1,21.0,0000.0,0020.75,0006.17,0004.21
2023-09-30 04:30:00,SystemResetWarning,0828.7,5.00,000.00,028.3,027.1,000.0,036.7,030.1,20.9,0000.0,0021.38,0006.17,0004.20
2023-09-30 04:31:00,SystemResetWarning,0828.6,4.99,000.00,028.3,027.2,000.0,036.7,030.2,20.8,0000.0,0021.98,0006.17,0004.22
2023-09-30 04:32:00,SystemResetWarning,0828.6,4.99,000.00,028.3,027.3,000.0,036.7,030.2,20.8,0000.0,0021.33,0006.12,0004.21
2023-09-30 04:33:00,SystemResetWarning,0828.6,5.01,000.00,028.4,027.3,000.0,036.8,030.3,20.7,0000.0,0021.00,0006.11,0004.21
2023-09-30 04:34:00,SystemResetWarning,0828.6,5.01,000.00,028.4,027.4,000.0,036.8,030.3,20.7,0000.0,0022.83,0006.12,0004.21
2023-09-30 04:35:00,SystemResetWarning,0828.6,5.00,000.00,028.5,027.4,000.0,036.8,030.3,20.6,0000.0,0024.33,0006.17,0004.21
2023-09-30 04:36:00,SystemResetWarning,0828.6,4.98,000.00,028.4,025.8,000.0,036.8,030.2,20.6,0000.0,0024.58,0006.16,0004.21
2023-09-30 04:37:00,SystemResetWarning,0828.6,5.00,000.00,028.3,023.8,000.0,036.7,029.9,20.7,0000.0,0024.00,0006.17,0004.21
2023-09-30 04:38:00,SystemResetWarning,0828.6,5.01,000.00,028.3,023.4,000.0,036.6,029.7,20.8,0000.0,0024.62,0006.19,0004.19
2023-09-30 04:39:00,SystemResetWarning,0828.6,5.01,000.00,028.1,023.7,000.0,036.6,029.5,21.0,0000.0,0024.22,0006.20,0004.19
2023-09-30 04:40:00,SystemResetWarning,0828.6,4.99,000.00,028.0,024.1,000.0,036.6,029.4,21.2,0000.0,0025.57,0006.23,0004.19
2023-09-30 04:41:00,SystemResetWarning,0828.5,4.99,000.00,028.0,024.6,000.0,036.6,029.5,21.2,0000.0,0025.48,0006.25,0004.20
2023-09-30 04:42:00,SystemResetWarning,0828.6,5.00,000.00,027.9,025.0,000.0,036.6,029.6,21.3,0000.0,0025.83,0006.21,0004.19
2023-09-30 04:43:00,SystemResetWarning,0828.6,5.00,000.00,027.9,025.4,000.0,036.6,029.6,21.3,0000.0,0026.01,0006.26,0004.20
2023-09-30 04:44:00,SystemResetWarning,0828.6,5.00,000.00,027.9,025.8,000.0,036.6,029.7,21.3,0000.0,0026.36,0006.29,0004.21
2023-09-30 04:45:00,SystemResetWarning,0828.6,5.01,000.00,028.0,026.1,000.0,036.6,029.8,21.3,0000.0,0025.23,0006.31,0004.22
2023-09-30 04:46:00,SystemResetWarning,0828.6,5.00,000.00,028.0,026.3,000.0,036.6,029.8,21.3,0000.0,0025.18,0006.32,0004.22
2023-09-30 04:47:00,SystemResetWarning,0828.6,5.00,000.00,028.0,026.5,000.0,036.6,029.8,21.2,0000.0,0024.92,0006.37,0004.22
2023-09-30 04:48:00,SystemResetWarning,0828.6,5.00,000.00,028.0,026.6,000.0,036.6,029.9,21.3,0000.0,0025.22,0006.35,0004.24
2023-09-30 04:49:00,SystemResetWarning,0828.6,5.00,000.00,028.1,026.8,000.0,036.6,029.9,21.3,0000.0,0024.72,0006.30,0004.25
2023-09-30 04:50:00,SystemResetWarning,0828.6,5.00,000.00,028.1,026.9,000.0,036.6,030.0,21.3,0000.0,0024.19,0006.26,0004.25
2023-09-30 04:51:00,SystemResetWarning,0828.6,5.00,000.00,028.2,027.0,000.0,036.6,030.0,21.2,0000.0,0022.66,0006.26,0004.25
2023-09-30 04:52:00,SystemResetWarning,0828.6,5.00,000.00,028.2,027.1,000.0,036.6,030.1,21.1,0000.0,0022.63,0006.28,0004.26
2023-09-30 04:53:00,SystemResetWarning,0828.6,5.00,000.00,028.2,027.2,000.0,036.6,030.1,21.0,0000.0,0023.07,0006.34,0004.27
2023-09-30 04:54:00,SystemResetWarning,0828.6,5.00,000.00,028.3,027.2,000.0,036.7,030.1,20.6,0000.0,0023.03,0006.34,0004.27
2023-09-30 04:55:00,SystemResetWarning,0828.6,5.00,000.00,028.3,027.3,000.0,036.7,030.2,19.7,0000.0,0021.61,0006.31,0004.28
2023-09-30 04:56:00,SystemResetWarning,0828.7,5.00,000.00,028.3,027.3,000.0,036.7,030.2,19.6,0000.0,0021.58,0006.29,0004.28
2023-09-30 04:57:00,SystemResetWarning,0828.7,5.00,000.00,028.4,027.4,000.0,036.8,030.3,19.6,0000.0,0023.12,0006.31,0004.29
2023-09-30 04:58:00,SystemResetWarning,0828.6,5.00,000.00,028.4,027.5,000.0,036.8,030.3,19.6,0000.0,0023.98,0006.27,0004.30
2023-09-30 04:59:00,SystemResetWarning,0828.6,5.00,000.00,028.5,027.5,000.0,036.8,030.3,19.7,0000.0,0023.80,0006.31,0004.31
